Regional Weather Roundup
Issued by NWS

Home | Current Version | Previous Version | Graphics & Text | Print | Product List | Glossary On
Versions: 1 2 3 4 5 6 7 8 9 10 11 12 13 14 15 16 17 18 19 20 21 22 23 24 25 26 27 28 29 30 31 32 33 34 35 36 37 38 39 40 41 42 43 44 45 46 47 48 49 50
000
ASUS45 KPSR 031600
RWRAZ

ARIZONA HOURLY REGIONAL WEATHER ROUNDUP
NATIONAL WEATHER SERVICE PHOENIX AZ
900 AM MST MON AUG 03 2015

NOTE: FAIR INDICATES FEW OR NO CLOUDS BELOW 12,000 FEET WITH NO
SIGNIFICANT WEATHER AND/OR OBSTRUCTIONS TO VISIBILITY.

AZZ001>003-036-031700-
NORTHWEST ARIZONA

CITY           SKY/WX    TMP DP  RH WIND       PRES   REMARKS
KINGMAN        SUNNY     91  43  18 VRB5      30.01R
$$

AZZ004>008-015-016-018-031700-
NORTH CENTRAL ARIZONA

CITY           SKY/WX    TMP DP  RH WIND       PRES   REMARKS
GRAND CANYON   SUNNY     76  46  34 SW10      30.26S
WILLIAMS       SUNNY     75  46  35 W7        30.34S
PRESCOTT       MOSUNNY   80  49  33 CALM      30.16R
FLAGSTAFF      NOT AVBL
PAYSON         MOSUNNY   81  52  36 CALM      30.19R
PAGE           SUNNY     74  60  61 N3        30.10R
$$

AZZ009>014-017-031700-
NORTHEAST ARIZONA

CITY           SKY/WX    TMP DP  RH WIND       PRES   REMARKS
WINSLOW        NOT AVBL
SAINT JOHNS    SUNNY     74  54  49 CALM      30.22R
$$

AZZ023-031700-
GREATER PHOENIX AREA

CITY           SKY/WX    TMP DP  RH WIND       PRES   REMARKS
PHOENIX        MOSUNNY   95  56  26 E6        29.85R
DEER VALLEY    SUNNY     94  51  23 SW10      29.88R
SCOTTSDALE     SUNNY     93  55  27 CALM      29.90R
MESA-FALCON    MOSUNNY   95  54  24 VRB7      29.88R
MESA-GATEWAY   MOSUNNY   91  55  29 SE5       29.90R
$$

AZZ027-028-031700-
SOUTHWEST MARICOPA COUNTY AND PINAL COUNTY

CITY           SKY/WX    TMP DP  RH WIND       PRES   REMARKS
CASA GRANDE    SUNNY     93  52  24 S5        29.88S
GILA BEND      SUNNY     99  42  14 S7        29.84R
$$

AZZ503-504-507>509-031700-
SOUTHEAST ARIZONA

CITY           SKY/WX    TMP DP  RH WIND       PRES   REMARKS
TUCSON         SUNNY     87  58  37 NW3       30.00R
DAVIS-MONTHAN  SUNNY     87  61  41 VRB1      29.99R
NOGALES        SUNNY     81  61  50 CALM      30.09S
SIERRA VISTA   SUNNY     80  58  47 NW6       30.15R
SAFFORD        SUNNY     85  57  38 S5        30.01S
$$

AZZ020-021-025-026-031-031700-
SOUTHWEST ARIZONA

CITY           SKY/WX    TMP DP  RH WIND       PRES   REMARKS
YUMA           NOT AVBL
$$

CAZ031-033-041-043-047-048-061-031700-
SOUTHERN CALIFORNIA

CITY           SKY/WX    TMP DP  RH WIND       PRES   REMARKS
DOWNTOWN L.A.  CLOUDY    74  64  71 VRB3      29.90R
L.A. AIRPORT   MOSUNNY   72  64  76 SE6       29.91R
SAN DIEGO      PTSUNNY   70  61  73 CALM      29.92R
BURBANK        SUNNY     72  62  71 SE3       29.91S
ONTARIO        MOSUNNY   72  61  68 CALM      29.92S
RIVERSIDE      SUNNY     72  63  73 CALM      29.92S
PALM SPRINGS   SUNNY     93  56  28 CALM      29.79R
EL CENTRO NAS  SUNNY     94  57  28 VRB5      29.77R
IMPERIAL       SUNNY     92  62  36 SE9       29.76R
BLYTHE         SUNNY     96  52  22 S8        29.78R
$$

NVZ020-UTZ003-031700-
SOUTHERN NEVADA-UTAH

CITY           SKY/WX    TMP DP  RH WIND       PRES   REMARKS
LAS VEGAS      NOT AVBL
SALT LAKE CITY LGT RAIN  63  60  90 N10       30.09R
$$

NMZ009-TXZ055-031700-
NEW MEXICO-WEST TEXAS

CITY           SKY/WX    TMP DP  RH WIND       PRES   REMARKS
ALBUQUERQUE    MOSUNNY   72  59  63 CALM      30.20R
EL PASO        PTSUNNY   83  60  45 NW5       30.06F
$$


........................KEY........................
SKY/WX - SKY CONDITION/WEATHER
TMP    - TEMPERATURE IN FAHRENHEIT
DP     - DEW POINT IN FAHRENHEIT
RH     - RELATIVE HUMIDITY IN PERCENT
WIND   - DIRECTION AND SPEED IN MILES PER HOUR (MPH)
VRB    - VARIABLE WIND DIRECTION
PRES   - MEAN SEA LEVEL PRESSURE IN INCHES OF MERCURY
         F - FALLING PRESSURE   R - RISING PRESSURE
         S - STEADY PRESSURE
VSB    - VISIBILITY IN MILES
HX     - HEAT INDEX IN FAHRENHEIT
WCI    - WIND CHILL INDEX IN FAHRENHEIT
TC     - TEMPERATURE IN CELSIUS WHICH IS ALSO KNOWN AS
         TEMPERATURE IN CENTIGRADE
AFB    - AIR FORCE BASE
         LUKE AFB IS LUKE AIR FORCE BASE
         DAVIS-MONTHAN IS DAVIS-MONTHAN AIR FORCE BASE
NAS    - NAVAL AIR STATION
         EL CENTRO NAS IS EL CENTRO NAVAL AIR STATION
N/A    - NOT AVAILABLE




USA.gov is the U.S. government's official web portal to all federal, state and local government web resources and services.